Weather History for Marfa, TX

Change the Weather History Date:

Wednesday, February 6, 2013

  Actual Average Record
Temperature  
Mean Temperature 50 °F -  
Max Temperature 69 °F 57 °F 75 °F (2009)
Min Temperature 30 °F 27 °F 15 °F (2014)
Degree Days  
Heating Degree Days 16    
Moisture  
Dew Point 28 °F    
Average Humidity 51    
Maximum Humidity 80    
Minimum Humidity 21    
Precipitation  
Precipitation 0.00 in - - ()
Sea Level Pressure  
Sea Level Pressure 30.02 in    
Wind  
Wind Speed 6 mph (NW)    
Max Wind Speed 20 mph    
Max Gust Speed 24 mph    
Visibility 10 miles    
Events      
Averages and records for this station are not official NWS values.
T = Trace of Precipitation, MM = Missing Value Source: NWS Daily Summary

Daily Weather History Graph

Daily Weather History Graph

Search for Another Location

Airport:

Trip Planner

Search our weather history database for the weather conditions in past years. The results will help you decide how hot, cold, wet, or windy it might be!

Date:

Astronomy

Feb. 06, 2013 Rise Set
Actual Time 7:43 AM CST 6:37 PM CST
Civil Twilight 7:18 AM CST 7:02 PM CST
Nautical Twilight 6:49 AM CST 7:30 PM CST
Astronomical Twilight 6:21 AM CST 7:58 PM CST
Moon 4:21 AM CST (2/6) 3:05 PM CST (2/6)
Length of Visible Light 11h 43m
Length of Day
10h 53m
Waning Crescent, 17% of the Moon is Illuminated
Feb 6
Waning Crescent
Feb 10
New
Feb 17
First Quarter
Feb 25
Full
Mar 4
Last Quarter

Hourly Weather History & Observations

Time (CST) Temp. Windchill Dew Point Humidity Pressure Visibility Wind Dir Wind Speed Gust Speed Precip Events Conditions
12:15 AM 35.6 °F 29.2 °F 24.8 °F 65% 30.05 in 10.0 mi North 8.1 mph - N/A   Clear
12:35 AM 37.4 °F 32.1 °F 26.6 °F 65% 30.05 in 10.0 mi NNW 6.9 mph - N/A   Clear
12:55 AM 37.4 °F 30.8 °F 26.6 °F 65% 30.04 in 10.0 mi NNW 9.2 mph - N/A   Clear
1:15 AM 39.2 °F 33.6 °F 26.6 °F 61% 30.04 in 10.0 mi NNW 8.1 mph - N/A   Clear
1:35 AM 37.4 °F 32.1 °F 26.6 °F 65% 30.04 in 10.0 mi NNW 6.9 mph - N/A   Clear
1:55 AM 37.4 °F 32.8 °F 24.8 °F 60% 30.04 in 10.0 mi NNW 5.8 mph - N/A   Clear
2:15 AM 35.6 °F 30.7 °F 24.8 °F 65% 30.04 in 10.0 mi NNW 5.8 mph - N/A   Clear
2:35 AM 33.8 °F 28.6 °F 24.8 °F 70% 30.04 in 10.0 mi North 5.8 mph - N/A   Clear
2:55 AM 33.8 °F 28.6 °F 24.8 °F 70% 30.04 in 10.0 mi NNW 5.8 mph - N/A   Clear
3:15 AM 33.8 °F 30.8 °F 24.8 °F 70% 30.04 in 10.0 mi North 3.5 mph - N/A   Clear
3:35 AM 33.8 °F 28.6 °F 24.8 °F 70% 30.04 in 10.0 mi NW 5.8 mph - N/A   Clear
3:55 AM 33.8 °F 28.6 °F 24.8 °F 70% 30.03 in 10.0 mi NNW 5.8 mph - N/A   Clear
4:15 AM 32.0 °F 27.5 °F 24.8 °F 75% 30.03 in 10.0 mi North 4.6 mph - N/A   Clear
4:35 AM 32.0 °F 28.7 °F 24.8 °F 75% 30.03 in 10.0 mi NE 3.5 mph - N/A   Clear
4:55 AM 30.2 °F 24.3 °F 24.8 °F 80% 30.03 in 10.0 mi NE 5.8 mph - N/A   Partly Cloudy
5:15 AM 30.2 °F 25.4 °F 24.8 °F 80% 30.03 in 10.0 mi North 4.6 mph - N/A   Scattered Clouds
5:35 AM 30.2 °F 25.4 °F 24.8 °F 80% 30.03 in 10.0 mi NNE 4.6 mph - N/A   Scattered Clouds
5:55 AM 30.2 °F 26.7 °F 24.8 °F 80% 30.02 in 10.0 mi NNE 3.5 mph - N/A   Scattered Clouds
6:15 AM 30.2 °F 26.7 °F 24.8 °F 80% 30.02 in 10.0 mi North 3.5 mph - N/A   Partly Cloudy
6:35 AM 30.2 °F 25.4 °F 24.8 °F 80% 30.02 in 10.0 mi NNW 4.6 mph - N/A   Clear
6:55 AM 32.0 °F 26.4 °F 26.6 °F 80% 30.02 in 10.0 mi NNW 5.8 mph - N/A   Clear
7:15 AM 32.0 °F 25.6 °F 26.6 °F 80% 30.03 in 10.0 mi NNW 6.9 mph - N/A   Clear
7:35 AM 32.0 °F 27.5 °F 24.8 °F 75% 30.03 in 10.0 mi North 4.6 mph - N/A   Clear
7:55 AM 30.2 °F 25.4 °F 24.8 °F 80% 30.04 in 10.0 mi North 4.6 mph - N/A   Clear
8:15 AM 33.8 °F 28.6 °F 26.6 °F 75% 30.04 in 10.0 mi North 5.8 mph - N/A   Clear
8:35 AM 37.4 °F 33.8 °F 28.4 °F 70% 30.04 in 10.0 mi North 4.6 mph - N/A   Clear
8:55 AM 42.8 °F - 30.2 °F 61% 30.05 in 10.0 mi Calm Calm - N/A   Clear
9:15 AM 46.4 °F - 30.2 °F 53% 30.05 in 10.0 mi Calm Calm - N/A   Clear
9:35 AM 51.8 °F - 30.2 °F 44% 30.06 in 10.0 mi Calm Calm - N/A   Clear
9:55 AM 53.6 °F - 30.2 °F 41% 30.06 in 10.0 mi Calm Calm - N/A   Clear
10:35 AM 57.2 °F - 32.0 °F 38% 30.06 in 10.0 mi Calm Calm - N/A   Clear
10:55 AM 59.0 °F - 32.0 °F 36% 30.06 in 10.0 mi South 4.6 mph - N/A   Clear
11:15 AM 60.8 °F - 30.2 °F 31% 30.06 in 10.0 mi South 4.6 mph - N/A   Clear
11:35 AM 60.8 °F - 32.0 °F 34% 30.05 in 10.0 mi South 6.9 mph - N/A   Clear
11:55 AM 62.6 °F - 33.8 °F 34% 30.04 in 10.0 mi SSE 5.8 mph - N/A   Clear
12:15 PM 64.4 °F - 33.8 °F 32% 30.04 in 10.0 mi SW 6.9 mph - N/A   Clear
12:35 PM 66.2 °F - 33.8 °F 30% 30.03 in 10.0 mi SSE 6.9 mph - N/A   Clear
12:55 PM 66.2 °F - 33.8 °F 30% 30.02 in 10.0 mi South 13.8 mph - N/A   Clear
1:15 PM 66.2 °F - 33.8 °F 30% 30.01 in 10.0 mi SSW 4.6 mph - N/A   Clear
1:35 PM 64.4 °F - 33.8 °F 32% 30.00 in 10.0 mi SW 10.4 mph - N/A   Clear
1:55 PM 64.4 °F - 33.8 °F 32% 29.98 in 10.0 mi South 4.6 mph - N/A   Partly Cloudy
2:15 PM 66.2 °F - 35.6 °F 32% 29.97 in 10.0 mi SSE 5.8 mph - N/A   Mostly Cloudy
2:35 PM 69.8 °F - 33.8 °F 27% 29.97 in 10.0 mi WSW 12.7 mph 23.0 mph N/A   Mostly Cloudy
2:55 PM 69.8 °F - 30.2 °F 23% 29.96 in 10.0 mi SW 11.5 mph 21.9 mph N/A   Scattered Clouds
3:15 PM 69.8 °F - 28.4 °F 21% 29.96 in 10.0 mi SW 19.6 mph 24.2 mph N/A   Clear
3:35 PM 68.0 °F - 28.4 °F 23% 29.95 in 10.0 mi WSW 15.0 mph 21.9 mph N/A   Clear
3:55 PM 66.2 °F - 28.4 °F 24% 29.95 in 10.0 mi WSW 18.4 mph 21.9 mph N/A   Clear
4:15 PM 66.2 °F - 28.4 °F 24% 29.95 in 10.0 mi West 13.8 mph 23.0 mph N/A   Clear
4:35 PM 64.4 °F - 28.4 °F 26% 29.95 in 10.0 mi WSW 12.7 mph - N/A   Clear
4:55 PM 64.4 °F - 30.2 °F 28% 29.96 in 10.0 mi West 13.8 mph - N/A   Clear
5:15 PM 64.4 °F - 30.2 °F 28% 29.96 in 10.0 mi West 15.0 mph - N/A   Clear
5:35 PM 64.4 °F - 30.2 °F 28% 29.96 in 10.0 mi West 11.5 mph - N/A   Clear
5:55 PM 62.6 °F - 30.2 °F 30% 29.97 in 10.0 mi West 8.1 mph - N/A   Clear
6:15 PM 62.6 °F - 32.0 °F 32% 29.97 in 10.0 mi WSW 4.6 mph - N/A   Clear
6:35 PM 60.8 °F - 30.2 °F 31% 29.97 in 10.0 mi WSW 5.8 mph - N/A   Clear
6:55 PM 57.2 °F - 30.2 °F 36% 29.98 in 10.0 mi West 4.6 mph - N/A   Clear
7:15 PM 55.4 °F - 30.2 °F 38% 29.98 in 10.0 mi West 8.1 mph - N/A   Clear
7:35 PM 51.8 °F - 30.2 °F 44% 29.99 in 10.0 mi West 6.9 mph - N/A   Clear
7:55 PM 51.8 °F - 30.2 °F 44% 30.00 in 10.0 mi WNW 3.5 mph - N/A   Clear
8:15 PM 48.2 °F - 28.4 °F 46% 30.00 in 10.0 mi West 8.1 mph - N/A   Clear
8:35 PM 48.2 °F - 30.2 °F 50% 30.00 in 10.0 mi WNW 8.1 mph - N/A   Clear
8:55 PM 46.4 °F 42.9 °F 28.4 °F 50% 30.01 in 10.0 mi NW 6.9 mph - N/A   Clear
9:15 PM 44.6 °F 42.2 °F 28.4 °F 53% 30.01 in 10.0 mi NNE 4.6 mph - N/A   Clear
9:35 PM 42.8 °F 41.1 °F 28.4 °F 57% 30.01 in 10.0 mi ENE 3.5 mph - N/A   Clear
9:55 PM 42.8 °F - 28.4 °F 57% 30.02 in 10.0 mi Calm Calm - N/A   Clear
10:15 PM 41.0 °F - 26.6 °F 57% 30.02 in 10.0 mi Calm Calm - N/A   Clear
10:35 PM 39.2 °F - 24.8 °F 56% 30.03 in 10.0 mi Calm Calm - N/A   Clear
10:55 PM 37.4 °F 34.9 °F 24.8 °F 60% 30.03 in 10.0 mi NW 3.5 mph - N/A   Clear
11:15 PM 37.4 °F - 24.8 °F 60% 30.03 in 10.0 mi Calm Calm - N/A   Clear
11:35 PM 37.4 °F - 24.8 °F 60% 30.03 in 10.0 mi Calm Calm - N/A   Clear
11:55 PM 35.6 °F 32.8 °F 24.8 °F 65% 30.04 in 10.0 mi North 3.5 mph - N/A   Clear